Vorticity
4 3 4 5 -5 3 8 11 4 0 18 7 7 -3 1 4 9 3 3 9 14 6 19 18 11 19 15 5 2 -2 3 12 -1 7 4 7 8 8 10 7 12 9 12 11 11 12 12
8 11 9 10 13 27 2 -17 30 -9 23 11 14 -4 4 14 5 9 12 18 19 15 8 26 -0 -3 -5 6 6 4 3 8 6 8 8 9 7 6 10 9 8 4 5 16 14 16 16
15 7 8 15 -2 16 12 16 21 -1 -5 11 23 21 19 9 12 7 19 14 21 14 14 12 -26 4 18 4 3 16 9 8 7 8 7 8 9 11 8 10 17 17 11 5 31 7 10
10 -2 22 2 16 30 32 29 4 33 31 11 9 6 17 13 10 9 4 10 23 13 11 -1 8 -8 8 10 8 6 -3 7 9 8 8 8 9 6 6 10 10 4 11 15 -6 -9 7
-2 8 5 30 23 9 11 16 11 18 13 14 19 22 1 10 19 19 8 20 32 10 26 41 -2 9 15 2 10 32 6 8 8 8 7 8 7 5 5 10 12 14 2 3 5 -20 -7
-11 6 28 19 14 15 20 16 7 21 19 15 22 24 21 48 28 14 19 -39 30 23 -15 1 30 1 20 7 14 8 11 8 10 8 9 6 6 4 7 7 -5 -12 4 1 6 4 4
13 17 18 12 30 15 14 19 19 12 19 17 8 10 19 22 30 3 7 57 11 30 31 -5 12 -1 18 5 13 10 11 12 7 6 3 11 4 8 6 9 8 9 5 6 17 30 16
16 20 10 20 14 22 25 10 27 34 11 17 13 9 7 10 -2 12 9 2 27 -11 6 4 3 19 6 17 8 8 8 7 9 5 6 4 13 6 6 -5 3 6 2 7 35 -25 13
15 10 19 15 14 10 9 19 14 34 24 21 10 5 11 11 9 10 15 15 6 67 9 23 16 3 5 7 6 10 10 6 6 6 9 7 -0 -11 4 4 10 4 12 4 3 3 -1
14 11 19 13 9 9 12 9 16 26 17 19 34 17 14 15 12 18 14 8 32 -2 6 19 -2 1 9 13 13 11 9 4 5 8 10 16 14 8 12 11 7 -3 17 9 4 5 3
15 15 17 15 15 7 10 11 17 18 23 4 7 13 7 13 12 17 17 16 0 -14 0 20 9 16 24 -0 22 12 5 1 8 2 0 8 2 4 5 14 19 -2 9 5 16 6 20
15 19 12 19 17 3 9 11 13 2 2 8 12 3 13 7 12 22 17 19 3 5 9 16 20 9 4 17 8 9 10 6 8 9 6 6 5 4 9 5 2 6 20 27 31 28 24
9 25 14 14 14 1 7 18 12 10 8 14 13 15 12 8 5 15 19 -2 -1 23 4 9 24 0 4 6 13 8 9 13 14 9 9 8 17 9 5 10 15 9 11 12 19 10 3
21 11 17 19 19 15 11 16 10 9 6 7 18 17 17 33 25 2 -6 25 16 41 47 14 11 10 9 3 10 6 11 7 11 11 4 5 16 15 1 3 6 20 -0 -5 12 7 -1
13 11 26 16 15 13 11 9 8 7 4 10 8 19 -8 -5 13 31 18 2 18 -0 17 19 5 -1 3 11 16 -3 2 4 6 4 6 11 17 0 12 16 11 1 15 14 4 29 7
14 19 10 12 15 11 8 8 7 10 8 11 7 7 -2 30 21 13 15 24 28 5 -6 -1 6 20 11 6 5 5 6 7 19 8 10 5 9 26 19 11 15 12 3 15 9 11 7
13 16 18 13 11 13 11 11 12 11 12 9 4 7 10 4 22 5 3 12 7 11 17 18 20 15 -3 27 14 12 6 3 8 17 29 20 18 15 8 2 10 11 8 15 13 12 11
13 11 12 19 11 9 10 10 9 10 12 4 6 3 24 13 -6 2 4 7 6 8 0 7 6 4 10 6 12 12 17 29 29 9 1 20 8 11 15 7 16 17 5 22 14 -7 11
11 15 6 16 16 10 7 6 7 7 9 12 7 4 9 14 -2 7 9 8 5 3 8 4 15 9 15 6 -7 2 15 12 8 15 10 20 7 9 10 6 3 -1 18 20 6 -1 15
15 12 10 9 16 17 9 7 13 12 13 -2 3 10 17 15 5 2 6 11 9 11 3 5 11 11 14 18 21 6 10 2 11 12 13 1 17 27 26 9 10 19 25 22 18 36 40
21 11 13 5 7 16 18 13 5 6 10 5 11 1 5 16 4 -4 14 12 5 -1 -0 3 14 7 1 10 -1 3 9 -1 12 14 7 9 6 9 10 11 12 16 24 54 35 -10 31
13 15 11 13 6 5 12 15 19 16 8 8 8 10 15 11 6 9 -3 8 7 1 0 6 4 6 11 11 13 6 6 7 16 9 6 9 8 7 4 9 1 6 15 25 30 16 3
8 19 18 8 8 8 5 10 14 13 16 13 7 4 10 10 6 1 10 -3 5 6 5 4 4 8 6 6 6 6 7 8 12 9 4 11 12 5 6 6 -3 -14 9 6 3 9 3
14 15 15 12 7 7 7 8 7 14 15 16 19 11 7 12 6 9 2 8 7 -6 12 5 5 4 5 5 3 4 5 3 9 9 7 5 8 11 3 15 12 18 5 6 3 2 -3
9 7 17 19 7 6 4 9 5 7 11 15 18 22 17 8 8 17 5 4 1 11 5 5 6 4 6 4 2 8 5 13 5 8 10 7 6 7 11 9 11 13 12 6 3 -0 2
11 10 16 12 12 7 8 3 6 4 6 5 13 17 18 21 16 12 10 5 2 7 4 7 5 7 5 6 9 9 10 4 16 15 6 11 8 1 9 8 -0 21 13 9 8 2 6
11 9 8 16 15 7 5 8 2 4 4 4 6 8 17 18 22 13 11 10 8 4 10 8 5 8 7 6 10 11 10 1 19 13 13 8 15 6 7 -0 20 12 7 7 -4 -14 26
15 11 10 17 11 14 6 -1 5 4 3 3 3 6 11 15 18 20 16 11 5 5 4 5 13 17 9 14 9 11 11 7 10 2 2 4 9 15 19 4 20 23 6 -13 17 4 11
16 10 7 7 19 9 14 14 6 9 5 1 5 2 9 14 17 17 14 17 13 9 4 5 -6 7 7 4 3 11 3 4 -2 10 20 13 5 1 -9 14 0 22 17 21 3 8 11
Height
3085 3078 3071 3064 3057 3050 3044 3037 3033 3028 3025 3024 3023 3021 3020 3019 3018 3018 3017 3017 3020 3025 3029 3034 3038 3042 3045 3048 3053 3055 3056 3057 3058 3059 3060 3062 3064 3065 3067 3066 3065 3063 3066 3065 3066 3064 3062
3080 3072 3065 3057 3049 3041 3032 3023 3023 3019 3017 3015 3014 3012 3011 3010 3011 3011 3012 3012 3013 3018 3025 3028 3031 3035 3040 3043 3046 3050 3053 3054 3055 3056 3057 3059 3060 3061 3063 3063 3062 3061 3060 3060 3059 3058 3054
3074 3067 3058 3049 3042 3035 3028 3022 3016 3013 3010 3006 3004 3001 3001 3001 3002 3004 3006 3006 3008 3012 3020 3023 3020 3028 3032 3038 3042 3046 3049 3051 3052 3053 3054 3056 3057 3058 3059 3059 3057 3057 3057 3056 3054 3053 3051
3070 3061 3051 3041 3033 3023 3016 3013 3008 3004 3001 2996 2993 2991 2989 2992 2994 2998 3001 3002 3003 3008 3015 3011 3019 3027 3029 3035 3040 3044 3046 3048 3050 3051 3052 3053 3054 3055 3055 3056 3054 3055 3055 3053 3051 3049 3049
3064 3055 3045 3034 3025 3018 3011 3006 3002 2998 2993 2990 2987 2982 2980 2982 2987 2993 2996 2996 2999 3004 3009 3011 3020 3025 3029 3032 3036 3039 3043 3046 3047 3048 3048 3050 3052 3053 3053 3053 3054 3052 3052 3050 3048 3047 3045
3061 3050 3040 3030 3022 3014 3007 3002 2997 2992 2990 2987 2982 2977 2974 2977 2983 2988 2991 2992 2992 3002 3007 3011 3019 3025 3026 3030 3034 3036 3040 3044 3045 3046 3047 3049 3050 3050 3052 3052 3053 3052 3050 3047 3045 3044 3040
3057 3047 3037 3029 3019 3012 3004 2998 2993 2989 2988 2984 2983 2980 2979 2980 2983 2987 2991 2992 2999 3004 3004 3010 3017 3021 3025 3029 3032 3035 3038 3041 3043 3045 3046 3047 3049 3049 3050 3051 3050 3050 3048 3043 3040 3038 3032
3055 3046 3037 3028 3020 3012 3004 2998 2992 2988 2987 2984 2983 2983 2984 2985 2987 2990 2990 2990 2998 3002 3005 3012 3016 3021 3026 3028 3031 3035 3039 3042 3043 3044 3045 3048 3046 3048 3049 3049 3048 3047 3044 3039 3035 3034 3030
3055 3046 3037 3029 3022 3015 3007 3002 2995 2990 2987 2985 2985 2986 2986 2987 2989 2992 2994 2997 3002 3003 3008 3015 3019 3023 3028 3032 3032 3037 3040 3041 3042 3043 3045 3045 3047 3047 3047 3047 3045 3044 3041 3038 3035 3028 3026
3056 3047 3038 3031 3025 3019 3012 3007 2999 2993 2991 2989 2987 2990 2989 2991 2995 2994 2996 3000 3004 3007 3013 3021 3024 3026 3029 3031 3034 3037 3040 3043 3042 3044 3045 3045 3045 3045 3044 3043 3044 3040 3039 3035 3032 3031 3028
3058 3049 3041 3033 3029 3024 3017 3011 3004 3000 2999 2996 2995 2996 2995 2996 2996 2996 3000 3004 3008 3010 3016 3026 3025 3027 3029 3033 3036 3037 3040 3041 3043 3044 3046 3045 3044 3044 3043 3042 3042 3039 3036 3033 3031 3029 3027
3061 3053 3045 3037 3033 3028 3022 3016 3012 3009 3008 3005 3003 3003 3002 3003 3002 3002 3004 3008 3012 3014 3022 3027 3027 3029 3032 3034 3037 3038 3040 3042 3043 3043 3043 3043 3043 3043 3041 3041 3039 3035 3032 3028 3026 3025 3021
3065 3057 3049 3043 3035 3033 3027 3021 3018 3015 3014 3013 3011 3010 3009 3008 3007 3006 3009 3013 3015 3017 3027 3030 3029 3032 3034 3037 3038 3040 3041 3042 3043 3044 3043 3042 3040 3040 3040 3038 3036 3033 3031 3028 3025 3021 3019
3069 3062 3054 3048 3041 3036 3031 3026 3022 3020 3020 3019 3017 3016 3015 3012 3012 3014 3016 3016 3017 3025 3026 3031 3033 3035 3037 3039 3041 3041 3042 3043 3044 3044 3043 3042 3041 3039 3038 3037 3034 3032 3032 3030 3025 3020 3018
3073 3067 3060 3053 3048 3040 3037 3031 3029 3026 3025 3024 3023 3022 3022 3020 3018 3017 3019 3018 3026 3029 3032 3034 3036 3039 3039 3040 3042 3043 3043 3043 3043 3044 3045 3041 3039 3038 3036 3035 3035 3031 3029 3028 3024 3020 3019
3077 3071 3065 3059 3054 3048 3041 3038 3033 3033 3030 3028 3029 3028 3027 3024 3023 3024 3023 3024 3031 3033 3036 3038 3039 3041 3041 3042 3043 3043 3044 3043 3042 3042 3042 3041 3039 3037 3036 3035 3034 3031 3029 3026 3024 3022 3020
3081 3075 3070 3063 3058 3054 3048 3044 3040 3036 3036 3034 3033 3033 3033 3032 3031 3031 3027 3033 3036 3038 3038 3040 3040 3043 3043 3044 3043 3042 3043 3043 3041 3041 3040 3039 3040 3040 3038 3037 3034 3031 3027 3025 3026 3024 3023
3084 3079 3073 3070 3064 3059 3055 3050 3047 3042 3040 3040 3038 3037 3038 3038 3039 3035 3037 3038 3039 3041 3041 3042 3044 3044 3044 3044 3044 3043 3043 3042 3041 3040 3041 3041 3040 3039 3039 3037 3035 3031 3029 3025 3024 3028 3025
3085 3082 3078 3071 3069 3063 3060 3057 3052 3050 3045 3043 3042 3042 3043 3043 3042 3042 3042 3042 3044 3045 3045 3046 3046 3046 3046 3046 3047 3046 3044 3044 3043 3042 3043 3042 3042 3040 3040 3040 3037 3033 3030 3026 3026 3027 3027
3086 3084 3081 3076 3070 3068 3063 3061 3058 3053 3052 3049 3047 3047 3048 3048 3047 3047 3046 3047 3047 3049 3049 3049 3049 3048 3048 3047 3047 3048 3047 3046 3044 3044 3044 3044 3043 3042 3044 3044 3041 3035 3029 3025 3026 3028 3032
3088 3084 3082 3080 3075 3071 3068 3063 3061 3057 3054 3054 3052 3050 3050 3051 3051 3050 3051 3052 3051 3051 3051 3051 3051 3051 3051 3050 3049 3049 3049 3048 3047 3046 3045 3046 3045 3045 3043 3044 3043 3038 3032 3027 3030 3032 3033
3089 3084 3082 3081 3079 3073 3071 3067 3064 3060 3058 3056 3054 3053 3053 3052 3052 3052 3054 3054 3054 3054 3053 3053 3054 3053 3053 3053 3053 3051 3050 3050 3050 3049 3048 3047 3048 3047 3045 3044 3043 3042 3039 3036 3036 3036 3036
3088 3084 3082 3080 3079 3076 3072 3070 3067 3063 3061 3059 3057 3055 3055 3056 3055 3055 3056 3057 3057 3057 3056 3056 3055 3054 3055 3056 3054 3053 3052 3051 3050 3050 3049 3048 3047 3047 3046 3045 3044 3045 3043 3041 3040 3041 3042
3086 3082 3081 3079 3078 3076 3073 3071 3071 3068 3064 3063 3060 3057 3057 3057 3057 3056 3056 3057 3057 3058 3057 3057 3057 3056 3057 3056 3055 3054 3053 3052 3051 3050 3049 3049 3048 3048 3048 3047 3049 3045 3044 3043 3043 3043 3043
3083 3080 3078 3077 3076 3075 3074 3071 3071 3069 3066 3064 3061 3061 3057 3056 3055 3056 3055 3056 3057 3058 3058 3058 3058 3058 3057 3056 3056 3054 3053 3052 3051 3049 3049 3048 3048 3048 3048 3047 3047 3044 3043 3044 3043 3044 3043
3081 3078 3075 3073 3074 3074 3073 3071 3070 3071 3069 3066 3063 3061 3060 3060 3057 3054 3055 3056 3057 3057 3058 3059 3059 3059 3058 3057 3056 3054 3053 3051 3051 3050 3049 3048 3048 3049 3047 3047 3045 3042 3042 3043 3044 3042 3041
3077 3076 3073 3070 3071 3071 3071 3070 3069 3066 3067 3067 3065 3062 3060 3058 3058 3056 3056 3056 3056 3058 3058 3059 3059 3059 3059 3058 3056 3054 3053 3051 3049 3048 3047 3047 3047 3046 3045 3044 3040 3039 3040 3041 3044 3043 3038
3076 3073 3070 3068 3067 3069 3069 3068 3067 3068 3065 3065 3065 3064 3062 3059 3058 3058 3057 3056 3055 3056 3057 3059 3060 3059 3059 3058 3057 3054 3051 3050 3048 3046 3044 3045 3045 3043 3043 3042 3038 3034 3036 3038 3038 3036 3037
3072 3070 3066 3066 3064 3064 3064 3064 3064 3066 3065 3064 3062 3061 3061 3059 3058 3056 3056 3057 3057 3055 3056 3057 3059 3058 3057 3057 3058 3055 3052 3050 3047 3044 3042 3042 3040 3040 3040 3035 3033 3032 3033 3034 3035 3035 3036